sat.trackr.live / text

‹ back to catalog

STARLINK-30833

NORAD 58152 · 2023-166C

PAYLOAD ACTIVE UNKNOWN

§ Identity

Operator
Country
US
Launch date
2023-10-29
Launch site
AFWTR
Launch vehicle
Mass (kg)
RCS (m²)

Purposes: comms

External: N2YO · Heavens-Above · Gunter

§ Orbital elements

Epoch: 2026-05-25T04:00:03.998880Z

Period
94.01 min
Inclination
53.1597°
Eccentricity
0.0001174
Mean motion
15.31680917 rev/d
Perigee alt
470.0 km
Apogee alt
471.6 km
Semi-major
6,848.9 km
B*
1.6148e-3
RAAN
224.6319°
Arg perigee
83.4095°
Mean anomaly
310.4185°
Rev number
580

§ Raw data

STARLINK-308331 58152U 23166C   26145.16671295  .00050050  00000+0  16148-2 0  99952 58152  53.1597 224.6319 0001174  83.4095 310.4185 15.31680917  5808

JSON: /api/v1/satellites/58152 · /tle

For live sub-satellite position, see the globe view (requires WebGL).

§ Visibility from observer

Set your observer location to see the next 7 days of passes ≥ 10°. The values pass through the URL so the page stays shareable.

No JS? Fill the form by hand. The geolocation button needs JavaScript.